STARLINK-35592, 66136

Orbit data source: Space-Track

STARLINK-35592, 66136 is a payload satellite owned by SpaceX/Seattle (US) in LEO that was launched on Wed, 22 Oct 2025 UTC via an FALCON 9 launch vehicle from the Air Force Western Test Range (AFWTR). Payload-class satellites include a variety of spacecraft equipped with specific instruments for various scientific and technological missions. These include communications satellites like Starlink; space stations such as the ISS; scientific satellites like the Hubble; Earth observation satellites from companies like Planet Labs, Umbra, and HawkEye 360; GPS; miniature CubeSats for education and research; and military/defense satellites.

Loading next visibility...
Identifier
66136, 2025-237Y
Orbit
LEO
Country
Flag of USUS
Related business
Manufacturer
SpaceX/Seattle
Mission
Operational Commercial Communications
Bus & Motor
STARLINK V2MO, Unknown motor
Mass
575 kg wet, ~530 kg dry
Launch date (UTC)
2025-10-22 (4 months ago)
Launch vehicle
FALCON 9
Launch site
Air Force Western Test Range (AFWTR)
Object type
Payload
Rocket body
Debris
Shape & HBR
Box + 2 Pan, 17.7 m
Radar Cross Section
36.964 m²

Expand to show TLE details & history
Last TLE update: 17 hours ago

TLE from 17 hours ago
0 STARLINK-35592
1 66136U 25237Y   26061.44597374  .00028991  00000-0  98701-3 0  9996
2 66136  53.1586  73.1156 0001141  83.6036 276.5094 15.30204526 21507
Epoch: 2026-03-02T10:42Z
TLE epoch observation values (Epoch: 2026-03-02T10:42:12.131Z)
Latitude
-0.00006°
Longitude
112.32574°
Altitude
476.013 km
Speed
7.629 km/s
True Right ascension
04h 52m 27s
True Declination
0° 00' 00"
Sunlit
Object was in daylight at epoch
Visualization orbit readout
Latitude
Unknown
Longitude
Unknown
Altitude
Unknown
Speed
Unknown
Apparent Right ascension
Unknown
Apparent Declination
Unknown
Sunlit
N/A
Visualization observer readout
Local Sidereal Time
07:12:49
Azimuth
Unknown
Elevation
Unknown
Doppler factor
Unknown
Orbital elements
Apogee altitude
476.24 km
Perigee altitude
474.676 km
Semi-major axis
6,853.595 km
Eccentricity
0.00011
Inclination
53.1586°
RAAN
73.1156°
Arg. of periapsis
83.6036°
True anomaly
276.49641°
Mean anomaly
276.5094°
Eccentric anomaly
276.5029°
Mean motion
3.8253 °/min
Orbital period
94.11 mins
BSTAR
0.00098701
Loading maneuver chart data...
Computing Atmospheric mass density...
Loading historical data...
Loading historical data...
Loading historical data...
Loading historical data...
Loading historical data...
Loading historical data...
Loading historical data...

Documentation

Showing up to 5 results
|